FW4137 Weather Reports


time (UTC)temp
F
wind
direction
speed
knots
gust
knots
rain 1hr
in
rain 24hr
in
rain mn
in
humidity
%
barometer
mb
20260509044514 56 211 0.0 0.0 0.00 0.00 0.00 69 1017.3
20260509043007 56 211 0.0 0.0 0.00 0.00 0.00 69 1017.1
20260509041506 56 233 0.0 0.0 0.00 0.00 0.00 67 1017.0
20260509040004 57 207 0.0 3.5 0.00 0.00 0.00 66 1016.8
20260509034502 57 192 0.0 0.0 0.00 0.00 0.00 66 1016.6
20260509033001 57 223 0.0 0.0 0.00 0.00 0.00 66 1016.6
20260509031600 58 219 0.0 3.5 0.00 0.00 0.00 65 1016.4
20260509030110 58 217 0.0 0.9 0.00 0.00 0.00 64 1016.3
20260509024558 59 199 0.0 3.5 0.00 0.00 0.00 64 1016.2
20260509023056 59 215 0.0 2.6 0.00 0.00 0.00 63 1016.1
20260509021556 59 213 0.0 1.7 0.00 0.00 0.00 63 1016.0
20260509020053 58 169 0.0 0.9 0.00 0.00 0.00 65 1015.9
20260509014552 58 218 0.0 5.2 0.00 0.00 0.00 64 1015.8
20260509013107 59 187 1.7 7.8 0.00 0.00 0.00 64 1015.7
20260509011559 59 248 1.7 7.8 0.00 0.00 0.00 64 1015.7
20260509010049 59 195 0.0 7.0 0.00 0.00 0.00 66 1015.7
20260509004548 59 200 0.9 8.7 0.00 0.00 0.00 65 1015.7
20260509003108 60 210 1.7 8.7 0.00 0.00 0.00 63 1015.6
20260509001546 61 229 2.6 10.4 0.00 0.00 0.00 63 1015.4
20260509000056 61 184 0.0 6.1 0.00 0.00 0.00 63 1015.4
20260508234544 60 254 2.6 8.7 0.00 0.00 0.00 61 1015.3
20260508233042 61 173 1.7 10.4 0.00 0.00 0.00 59 1015.3
20260508231547 62 147 0.9 9.6 0.00 0.00 0.00 62 1015.3
20260508230042 62 215 1.7 7.0 0.00 0.00 0.00 61 1015.3
20260508224544 62 190 0.0 9.6 0.00 0.00 0.00 61 1015.2
20260508223042 63 165 0.9 10.4 0.00 0.00 0.00 61 1015.2
20260508221538 63 240 3.5 10.4 0.00 0.00 0.00 61 1015.2
20260508220035 62 194 2.6 12.2 0.00 0.00 0.00 64 1015.2
20260508214533 60 223 1.7 10.4 0.00 0.00 0.00 67 1015.2
20260508213033 61 211 1.7 6.1 0.00 0.00 0.00 67 1015.1
20260508211529 60 206 0.0 9.6 0.00 0.00 0.00 71 1014.9
20260508210028 59 190 2.6 7.8 0.00 0.00 0.00 73 1014.8
20260508204523 59 215 1.7 7.0 0.00 0.00 0.00 74 1014.8
20260508203024 58 155 0.0 4.3 0.00 0.00 0.00 76 1014.5
20260508201520 57 195 4.3 9.6 0.00 0.00 0.00 76 1014.4
20260508200023 57 209 3.5 12.2 0.00 0.00 0.00 77 1014.3
20260508194517 59 222 0.0 5.2 0.00 0.00 0.00 75 1014.2
20260508193018 58 242 0.9 13.0 0.00 0.00 0.00 76 1014.1
20260508191514 58 207 2.6 13.9 0.00 0.00 0.00 77 1014.0
20260508190013 58 231 0.0 8.7 0.00 0.00 0.00 78 1013.7
20260508184511 59 272 0.9 7.8 0.00 0.00 0.00 78 1013.6
20260508183011 58 180 3.5 12.2 0.00 0.00 0.00 78 1013.3
20260508181508 59 196 1.7 11.3 0.00 0.00 0.00 77 1013.3
20260508180006 59 296 0.0 8.7 0.00 0.00 0.00 77 1013.2
20260508174510 58 227 0.0 7.8 0.00 0.00 0.00 79 1013.1
20260508173005 59 223 0.0 4.3 0.00 0.00 0.00 80 1013.0
20260508171500 58 221 0.0 5.2 0.00 0.00 0.00 81 1012.8
20260508170100 58 185 0.0 4.3 0.00 0.00 0.00 81 1012.8
20260508170002 58 210 0.0 4.3 0.00 0.00 0.00 81 1012.8
20260508164605 58 309 0.0 7.8 0.00 0.00 0.00 82 1012.7
20260508163117 58 253 0.0 0.9 0.00 0.00 0.00 82 1012.8
20260508161558 58 160 0.0 3.5 0.00 0.00 0.00 83 1012.7
20260508160055 57 220 0.0 4.3 0.00 0.00 0.00 83 1012.5
20260508154555 56 206 0.0 3.5 0.00 0.00 0.00 83 1012.4
20260508153055 57 188 0.0 0.9 0.00 0.00 0.00 82 1012.2
20260508151551 56 177 0.0 2.6 0.00 0.00 0.00 82 1012.1
20260508150049 56 162 0.0 0.9 0.00 0.00 0.00 81 1011.9
20260508144547 56 134 0.0 0.0 0.00 0.00 0.00 81 1011.7
20260508143049 56 133 0.0 0.9 0.00 0.00 0.00 81 1011.6
20260508141545 56 134 0.0 0.0 0.00 0.00 0.00 82 1011.6
20260508140045 56 134 0.0 0.0 0.00 0.00 0.00 83 1011.5
20260508134545 56 104 0.0 0.0 0.00 0.00 0.00 83 1011.4
20260508133047 56 104 0.0 0.0 0.00 0.00 0.00 82 1011.4
20260508131551 56 53 0.0 0.0 0.00 0.00 0.00 81 1011.2
20260508130052 56 90 0.0 0.0 0.00 0.00 0.00 81 1011.2
20260508124538 56 86 0.0 0.0 0.00 0.00 0.00 80 1011.0
20260508123040 56 86 0.0 0.0 0.00 0.00 0.00 80 1011.0
20260508121537 56 86 0.0 0.0 0.00 0.00 0.00 80 1011.0
20260508120037 56 86 0.0 0.0 0.00 0.00 0.00 81 1011.1
20260508114536 56 85 0.0 0.0 0.00 0.00 0.00 81 1011.2
20260508113042 56 85 0.0 0.0 0.00 0.00 0.00 81 1011.1
20260508111536 56 85 0.0 0.0 0.00 0.00 0.00 80 1011.1
20260508110047 56 85 0.0 0.0 0.00 0.00 0.00 80 1011.0
20260508104530 57 85 0.0 0.0 0.00 0.00 0.00 79 1010.9
20260508103036 57 85 0.0 0.0 0.00 0.00 0.00 78 1010.7
20260508101535 57 85 0.0 0.0 0.00 0.00 0.00 78 1010.6
20260508100027 57 85 0.0 0.0 0.00 0.00 0.00 77 1010.6
20260508094524 57 84 0.0 0.0 0.00 0.00 0.00 77 1010.7
20260508093039 58 82 0.0 0.0 0.00 0.00 0.00 76 1010.8
20260508091524 58 82 0.0 0.0 0.00 0.00 0.00 75 1010.8
20260508090029 58 82 0.0 0.0 0.00 0.00 0.00 76 1010.9
20260508084519 58 82 0.0 0.0 0.00 0.00 0.00 75 1011.0
20260508083024 58 113 0.0 0.0 0.00 0.00 0.00 75 1011.1
20260508081517 58 113 0.0 0.0 0.00 0.00 0.00 75 1011.1
20260508080025 58 113 0.0 0.0 0.00 0.00 0.00 76 1011.2
20260508074517 58 113 0.0 0.0 0.00 0.00 0.00 75 1011.3
20260508073017 58 107 0.0 0.0 0.00 0.00 0.00 76 1011.1
20260508071513 58 142 0.0 0.0 0.00 0.00 0.00 76 1011.2
20260508070011 58 132 0.0 0.0 0.00 0.00 0.00 77 1011.2
20260508064513 59 132 0.0 0.0 0.00 0.00 0.00 77 1011.2
20260508063010 59 131 0.0 0.0 0.00 0.00 0.00 77 1011.1
20260508061510 59 125 0.0 0.0 0.00 0.00 0.00 77 1011.1
20260508060009 59 140 0.0 0.0 0.00 0.00 0.00 77 1011.2
20260508054509 59 103 0.0 2.6 0.00 0.00 0.00 77 1011.2
20260508053009 60 112 0.0 0.9 0.00 0.00 0.00 76 1011.4
20260508051507 60 79 0.0 1.7 0.00 0.00 0.00 75 1011.4
20260508050007 60 86 0.0 6.1 0.00 0.00 0.00 75 1011.3